#timestamp,LO_Frequency,Hit,StdDev 
1457492415.9,286046998.2,N
1457492435.7,286046999.9,N
1457492455.5,286047001.1,N
1457492475.4,286046998.3,N
1457492495.2,286046997.7,N
1457492515.0,286046999.5,N
1457492515.9,286046999.5,N
1457492535.8,286046997.7,N
1457492555.6,286046995.1,N
1457492575.5,286046997.9,N
1457492595.3,286046995.0,N
1457492615.1,286046995.3,N
1457492635.9,286046997.3,N
1457492655.7,286046999.2,N
1457492675.5,286046996.7,N
1457492695.3,286047000.5,N
1457492715.2,286046998.6,N
1457492735.0,286047001.1,N
1457492735.9,286047001.1,N
1457492755.7,286046995.3,N
1457492775.6,286046995.4,N
1457492795.4,286046995.1,N
1457492815.2,286046997.5,N
1457492835.1,286046996.1,N
1457492836.0,286046996.1,N
1457492855.8,286046993.9,N
1457492875.6,286046995.2,N
1457492895.5,286046995.5,N
1457492915.3,286046996.7,N
1457492935.1,286046996.4,N
1457492955.9,286046996.4,N
1457492975.7,286046993.9,N
1457492995.5,286046995.3,N
1457493015.4,286046996.3,N
1457493035.2,286046993.5,Y
1457493055.0,286047000.9,P
1457493055.9,286047000.9,N
1457493075.8,286047002.5,N
1457493095.6,286047000.5,N
1457493115.4,286046995.9,N
1457493135.2,286046996.9,N
1457493155.1,286047001.0,N
1457493156.0,286047001.0,N
1457493175.8,286047001.3,N
1457493195.6,286047002.4,N
1457493215.5,286046998.8,N
1457493235.3,286046999.4,N
1457493255.2,286047001.2,N
1457493275.9,286046998.5,N
1457493295.7,286046996.9,N
1457493315.6,286046997.1,N
1457493335.4,286047000.3,N
1457493355.2,286047000.8,N
1457493375.1,286047002.3,N
1457493376.0,286047002.3,N
1457493395.8,286046998.1,N
1457493415.6,286047000.6,N
1457493435.5,286046998.8,N
1457493455.3,286046998.3,N
1457493475.1,286047000.2,N
1457493495.8,286046999.8,N
1457493515.7,286047002.8,N
1457493535.5,286047002.4,N
1457493555.3,286046998.3,N
1457493575.2,286046998.7,N
1457493595.9,286046997.1,N
1457493615.7,286046998.2,N
1457493635.6,286046999.9,N
1457493655.4,286047002.9,N
1457493675.2,286047003.1,N
1457493695.1,286047001.2,N
1457493696.0,286047001.2,N
1457493715.8,286047002.7,N
1457493735.6,286047002.1,N
1457493755.5,286046999.7,N
1457493775.3,286047003.4,N
1457493795.1,286047003.9,N
1457493815.9,286047009.0,Y
1457493835.7,286047010.7,P
1457493855.5,286047008.3,N
1457493875.4,286047007.1,N
1457493895.2,286047004.8,N
1457493915.0,286047003.4,N
1457493915.9,286047003.4,N
1457493935.7,286047004.7,N
1457493955.6,286047008.4,N
1457493975.4,286047008.8,N
1457493995.2,286047008.8,N
1457494015.1,286047010.8,Y
1457494016.0,286047010.8,P
1457494035.8,286047005.8,N
1457494055.6,286047009.0,P
1457494075.5,286047009.5,Y
1457494095.3,286047001.7,P
1457494115.1,286047005.1,N
1457494135.9,286047005.2,N
1457494155.7,286047004.9,N
1457494175.5,286047005.4,N
1457494195.4,286047006.4,Y
1457494215.2,286047004.5,P
1457494235.0,286047006.7,P
1457494235.9,286047006.7,P
1457494255.8,286047006.6,Y
1457494275.6,286047007.6,P
1457494295.4,286047004.8,P
1457494315.3,286047005.7,P
1457494335.1,286047004.7,Y
1457494355.8,286046999.9,P
1457494375.7,286046998.4,N
1457494395.5,286046996.1,N
1457494415.3,286046996.4,N
1457494435.2,286046994.4,N
1457494455.0,286046992.2,N
1457494455.9,286046992.2,N
1457494475.7,286046988.5,N
1457494495.6,286046989.0,N
1457494515.4,286046989.2,N
1457494535.2,286046990.9,N
1457494555.1,286046987.0,N
1457494556.0,286046987.0,N
1457494575.8,286046989.8,N
1457494595.6,286046985.9,N
1457494615.5,286046987.5,N
1457494635.3,286046987.6,N
1457494655.1,286046989.1,N
1457494675.9,286046988.0,N
1457494695.7,286046982.4,Y
1457494715.5,286046992.0,P
1457494735.4,286046994.4,P
1457494755.2,286046993.5,P
1457494775.0,286046996.0,Y
1457494775.9,286046996.0,P
1457494795.8,286047003.7,N
1457494815.6,286046999.9,N
1457494835.4,286046998.1,N
1457494855.2,286046998.8,N
1457494875.1,286046996.5,N
1457494876.0,286046996.5,N
1457494895.8,286046999.9,N
1457494915.6,286046998.3,N
1457494935.5,286047001.2,N
1457494955.3,286046998.1,N
1457494975.1,286047001.1,N
1457494995.9,286047000.9,N
1457495015.7,286047000.3,N
1457495035.5,286047001.5,N
1457495055.4,286046999.8,N
1457495075.2,286047004.3,N
1457495095.0,286047001.3,N
1457495095.9,286047001.3,N
1457495115.8,286047002.6,N
1457495135.6,286046998.9,N
1457495155.4,286047000.6,N
1457495175.2,286046997.2,N
1457495195.1,286046995.7,N
1457495196.0,286046995.7,N
1457495215.8,286046995.3,N
1457495235.6,286046994.9,N
1457495255.5,286046997.9,N
1457495275.3,286046996.6,N
1457495295.1,286046997.1,N
1457495315.9,286046998.6,N
1457495335.7,286047000.7,N
1457495355.5,286046996.6,N
1457495375.4,286046999.3,N
1457495395.2,286046999.5,N
1457495415.0,286046999.6,N
1457495415.9,286046999.6,N
1457495435.8,286046997.3,N
1457495455.6,286046997.9,N
1457495475.4,286046997.5,N
1457495495.3,286046999.2,N
1457495515.1,286046996.6,N
1457495516.0,286046996.6,N
1457495535.8,286046999.3,N
1457495555.6,286046996.8,N
1457495575.5,286046999.2,N
1457495595.3,286046993.7,N
1457495615.1,286046994.1,N
1457495635.9,286046996.4,N
1457495655.7,286046992.6,Y
1457495675.5,286046993.8,P
1457495695.4,286046994.4,N
1457495715.2,286046994.0,P
1457495735.0,286046995.7,N
1457495735.9,286046995.7,N
1457495755.8,286046996.2,N
1457495775.6,286046994.8,Y
1457495795.4,286046998.8,P
1457495815.3,286046996.8,N
1457495835.1,286046999.0,N
1457495836.0,286046999.0,N
1457495855.8,286046997.0,N
1457495875.7,286046996.0,N
1457495895.5,286046995.5,Y
1457495915.3,286047002.5,P
1457495935.2,286047000.5,N
1457495955.9,286046998.2,N
1457495975.7,286046999.3,N
1457495995.6,286047000.4,N
